Bastrop, LA

4:41 AM CDT on August 22, 2017 (GMT -0500)
Bastrop

Weather History for KBQP - January, 2014

Change the Weather History Date:

Tuesday, January 21, 2014

  Actual Average (KMLU) Record (KMLU)
Temperature  
Mean Temperature 42 °F -  
Max Temperature 57 °F 53 °F 80 °F (1999)
Min Temperature 26 °F 35 °F 8 °F (1985)
Degree Days  
Heating Degree Days 24    
Moisture  
Dew Point 19 °F    
Average Humidity 39    
Maximum Humidity 75    
Minimum Humidity 18    
Precipitation  
Precipitation 0.00 in - - ()
Sea Level Pressure  
Sea Level Pressure 30.19 in    
Wind  
Wind Speed 5 mph (NW)    
Max Wind Speed 18 mph    
Max Gust Speed 30 mph    
Visibility 10 miles    
Events      
Averages and records for this station are not official NWS values.
T = Trace of Precipitation, MM = Missing Value Source: NWS Daily Summary

Daily Weather History Graph

Daily Weather History Graph

Search for Another Location

Airport or City:

Trip Planner

Search our weather history database for the weather conditions in past years. The results will help you decide how hot, cold, wet, or windy it might be!

Date:

Astronomy

Jan. 21, 2014 Rise Set
Actual Time 7:08 AM CST 5:29 PM CST
Civil Twilight 6:41 AM CST 5:56 PM CST
Nautical Twilight 6:11 AM CST 6:26 PM CST
Astronomical Twilight 5:42 AM CST 6:55 PM CST
Moon 10:42 PM CST (1/21) 9:57 AM CST (1/21)
Length of Visible Light 11h 14m
Length of Day
10h 21m
Waning Gibbous, 74% of the Moon is Illuminated
Jan 21
Waning Gibbous
Jan 23
Last Quarter
Jan 30
New
Feb 6
First Quarter
Feb 14
Full

Hourly Weather History & Observations

Time (CST) Temp. Windchill Dew Point Humidity Pressure Visibility Wind Dir Wind Speed Gust Speed Precip Events Conditions
12:15 AM 57.6 °F - 40.1 °F 52% 29.98 in 10.0 mi Calm Calm - N/A   Clear
12:35 AM 57.9 °F - 38.1 °F 48% 29.99 in 10.0 mi Calm Calm - N/A   Scattered Clouds
12:55 AM 57.9 °F - 35.4 °F 43% 30.00 in 10.0 mi Calm Calm - N/A   Mostly Cloudy
1:15 AM 57.0 °F - 34.0 °F 42% 30.01 in 10.0 mi Calm Calm - N/A   Scattered Clouds
1:35 AM 56.7 °F - 31.8 °F 39% 30.02 in 10.0 mi Calm Calm - N/A   Scattered Clouds
1:55 AM 55.6 °F - 30.0 °F 38% 30.03 in 10.0 mi NNW 9.2 mph - N/A   Clear
2:15 AM 54.5 °F - 29.8 °F 39% 30.04 in 10.0 mi NNW 5.8 mph - N/A   Clear
2:35 AM 54.1 °F - 29.1 °F 38% 30.05 in 10.0 mi NNW 10.4 mph 16.1 mph N/A   Clear
2:55 AM 54.0 °F - 26.4 °F 35% 30.06 in 10.0 mi NNW 8.1 mph 20.7 mph N/A   Clear
3:15 AM 53.4 °F - 25.3 °F 34% 30.07 in 10.0 mi NNW 9.2 mph 17.3 mph N/A   Clear
3:35 AM 52.5 °F - 24.1 °F 33% 30.08 in 10.0 mi NW 10.4 mph 17.3 mph N/A   Clear
3:55 AM 50.4 °F - 25.2 °F 37% 30.09 in 10.0 mi NNW 9.2 mph - N/A   Clear
4:15 AM 50.5 °F - 22.5 °F 33% 30.09 in 10.0 mi NNW 8.1 mph - N/A   Clear
4:35 AM 49.1 °F - 21.9 °F 34% 30.09 in 10.0 mi Calm Calm - N/A   Clear
4:55 AM 46.6 °F - 21.9 °F 38% 30.10 in 10.0 mi Calm Calm - N/A   Clear
5:15 AM 44.2 °F - 21.9 °F 41% 30.11 in 10.0 mi Calm Calm - N/A   Clear
5:35 AM 44.2 °F - 22.6 °F 42% 30.11 in 10.0 mi Calm Calm - N/A   Clear
5:55 AM 44.6 °F 43.1 °F 22.3 °F 41% 30.12 in 10.0 mi WNW 3.5 mph - N/A   Clear
6:15 AM 43.9 °F 42.3 °F 22.1 °F 42% 30.12 in 10.0 mi West 3.5 mph - N/A   Clear
6:35 AM 43.9 °F 40.5 °F 22.1 °F 42% 30.13 in 10.0 mi WNW 5.8 mph - N/A   Clear
6:55 AM 43.2 °F - 21.9 °F 43% 30.14 in 10.0 mi Calm Calm - N/A   Clear
7:15 AM 43.9 °F 38.8 °F 22.1 °F 42% 30.16 in 10.0 mi NW 9.2 mph - N/A   Clear
7:35 AM 44.1 °F 41.5 °F 22.6 °F 43% 30.16 in 10.0 mi NW 4.6 mph - N/A   Clear
7:55 AM 46.2 °F 42.7 °F 22.1 °F 39% 30.17 in 10.0 mi NW 6.9 mph 17.3 mph N/A   Clear
8:15 AM 47.3 °F - 21.7 °F 36% 30.18 in 10.0 mi NW 6.9 mph - N/A   Clear
8:35 AM 48.2 °F - 17.6 °F 30% 30.20 in 10.0 mi NW 15.0 mph 20.7 mph N/A   Clear
8:55 AM 48.2 °F - 14.9 °F 26% 30.21 in 10.0 mi NW 15.0 mph 28.8 mph N/A   Clear
9:15 AM 48.4 °F - 14.9 °F 26% 30.23 in 10.0 mi NNW 12.7 mph 26.5 mph N/A   Clear
9:35 AM 49.1 °F - 14.5 °F 25% 30.24 in 10.0 mi NNW 18.4 mph 29.9 mph N/A   Clear
9:55 AM 48.6 °F - 14.0 °F 25% 30.25 in 10.0 mi NNW 12.7 mph 24.2 mph N/A   Clear
10:15 AM 49.8 °F - 14.2 °F 24% 30.27 in 10.0 mi NW 12.7 mph 20.7 mph N/A   Clear
10:35 AM 49.1 °F - 14.2 °F 25% 30.28 in 10.0 mi NW 12.7 mph 19.6 mph N/A   Clear
10:55 AM 49.5 °F - 15.3 °F 26% 30.28 in 10.0 mi NNW 8.1 mph 26.5 mph N/A   Clear
11:15 AM 50.5 °F - 14.7 °F 24% 30.27 in 10.0 mi NNW 9.2 mph 20.7 mph N/A   Clear
11:35 AM 49.8 °F - 13.8 °F 24% 30.27 in 10.0 mi NNW 10.4 mph 21.9 mph N/A   Clear
11:55 AM 49.6 °F - 14.9 °F 25% 30.26 in 10.0 mi NW 17.3 mph 25.3 mph N/A   Clear
12:15 PM 49.5 °F - 13.5 °F 24% 30.25 in 10.0 mi NNW 12.7 mph 17.3 mph N/A   Clear
12:35 PM 50.5 °F - 15.1 °F 24% 30.24 in 10.0 mi NW 11.5 mph 19.6 mph N/A   Clear
12:55 PM 50.2 °F - 13.8 °F 23% 30.24 in 10.0 mi NNW 13.8 mph 20.7 mph N/A   Clear
1:15 PM 50.2 °F - 14.5 °F 24% 30.24 in 10.0 mi North 5.8 mph 20.7 mph N/A   Clear
1:35 PM 50.5 °F - 12.7 °F 22% 30.24 in 10.0 mi NNW 9.2 mph 20.7 mph N/A   Clear
1:55 PM 50.4 °F - 8.2 °F 18% 30.23 in 10.0 mi WNW 16.1 mph 21.9 mph N/A   Clear
2:15 PM 48.7 °F - 9.7 °F 21% 30.24 in 10.0 mi NNW 11.5 mph 20.7 mph N/A   Clear
2:35 PM 48.2 °F - 6.8 °F 19% 30.24 in 10.0 mi North 9.2 mph 17.3 mph N/A   Clear
2:55 PM 49.5 °F - 9.0 °F 19% 30.24 in 10.0 mi Calm Calm - N/A   Clear
3:15 PM 48.4 °F - 10.0 °F 21% 30.23 in 10.0 mi North 3.5 mph 16.1 mph N/A   Clear
3:35 PM 48.6 °F - 10.6 °F 22% 30.23 in 10.0 mi NW 10.4 mph - N/A   Clear
3:55 PM 48.0 °F - 7.9 °F 20% 30.23 in 10.0 mi Calm Calm - N/A   Clear
4:15 PM 47.1 °F - 8.8 °F 21% 30.25 in 10.0 mi North 5.8 mph - N/A   Clear
4:35 PM 46.4 °F 44.3 °F 10.0 °F 23% 30.25 in 10.0 mi North 4.6 mph - N/A   Clear
4:55 PM 45.5 °F 43.2 °F 10.9 °F 25% 30.26 in 10.0 mi NW 4.6 mph - N/A   Clear
5:15 PM 44.1 °F - 11.8 °F 27% 30.25 in 10.0 mi Calm Calm - N/A   Clear
5:35 PM 42.4 °F - 12.0 °F 29% 30.25 in 10.0 mi Calm Calm - N/A   Clear
5:55 PM 39.9 °F - 13.8 °F 35% 30.25 in 10.0 mi Calm Calm - N/A   Clear
6:15 PM 38.5 °F - 14.7 °F 38% 30.26 in 10.0 mi Calm Calm - N/A   Clear
6:35 PM 36.7 °F - 16.9 °F 45% 30.26 in 10.0 mi Calm Calm - N/A   Clear
6:55 PM 35.6 °F - 16.7 °F 46% 30.26 in 10.0 mi Calm Calm - N/A   Clear
7:15 PM 34.7 °F - 16.7 °F 48% 30.26 in 10.0 mi Calm Calm - N/A   Clear
7:35 PM 34.2 °F - 16.9 °F 49% 30.27 in 10.0 mi Calm Calm - N/A   Clear
7:55 PM 33.1 °F - 17.6 °F 53% 30.26 in 10.0 mi Calm Calm - N/A   Clear
8:15 PM 32.9 °F - 17.2 °F 53% 30.27 in 10.0 mi Calm Calm - N/A   Clear
8:35 PM 32.0 °F - 17.4 °F 55% 30.27 in 10.0 mi Calm Calm - N/A   Clear
8:55 PM 31.1 °F - 18.5 °F 60% 30.27 in 10.0 mi Calm Calm - N/A   Clear
9:15 PM 30.7 °F - 18.7 °F 61% 30.26 in 10.0 mi Calm Calm - N/A   Clear
9:35 PM 28.8 °F - 19.2 °F 68% 30.26 in 10.0 mi Calm Calm - N/A   Clear
9:55 PM 27.9 °F - 18.9 °F 69% 30.26 in 10.0 mi Calm Calm - N/A   Clear
10:15 PM 27.1 °F - 20.3 °F 75% 30.27 in 10.0 mi Calm Calm - N/A   Clear
10:35 PM 27.3 °F - 18.9 °F 70% 30.27 in 10.0 mi Calm Calm - N/A   Clear
10:55 PM 26.8 °F - 19.0 °F 73% 30.27 in 10.0 mi Calm Calm - N/A   Clear
11:15 PM 26.6 °F - 19.2 °F 74% 30.27 in 10.0 mi Calm Calm - N/A   Clear
11:35 PM 26.2 °F - 19.2 °F 75% 30.27 in 10.0 mi Calm Calm - N/A   Clear
11:55 PM 26.4 °F - 19.2 °F 74% 30.27 in 10.0 mi Calm Calm - N/A   Clear